EW7349 Weather Reports


Display with metric or nautical units.
time (UTC)temp
F
wind
direction
speed
MPH
gust
MPH
rain 1hr
in
rain 24hr
in
rain mn
in
humidity
%
barometer
mb
20260903131043 74 27 1.0 4.0 0.00 0.11 0.00 96 1018.2
20260903130536 74 91 1.0 4.0 0.00 0.11 0.00 96 1018.2
20260903130029 73 85 1.0 3.0 0.00 0.11 0.00 96 1018.3
20260903125524 73 107 1.0 7.0 0.00 0.11 0.00 96 1018.3
20260903125018 73 67 1.0 7.0 0.00 0.11 0.00 96 1018.3
20260903124514 73 61 1.0 3.0 0.00 0.11 0.00 96 1018.4
20260903124013 73 82 0.0 3.0 0.00 0.11 0.00 96 1018.5
20260903123735 73 75 1.0 3.0 0.00 0.11 0.00 96 1018.6
20260903123012 73 67 1.0 3.0 0.00 0.11 0.00 96 1018.5
20260903122509 73 93 1.0 3.0 0.00 0.11 0.00 96 1018.4
20260903122009 73 63 1.0 6.0 0.00 0.11 0.00 96 1018.4
20260903121507 73 59 1.0 6.0 0.00 0.11 0.00 96 1018.5
20260903121007 73 87 1.0 6.0 0.00 0.11 0.00 96 1018.6
20260903120728 73 170 2.0 6.0 0.00 0.11 0.00 96 1018.5
20260903120004 73 96 1.0 5.0 0.00 0.11 0.00 96 1018.5
20260903115506 73 103 1.0 5.0 0.00 0.11 0.00 96 1018.3
20260903115225 73 71 1.0 4.0 0.00 0.11 0.00 96 1018.2
20260903114504 73 87 0.0 1.0 0.00 0.11 0.00 96 1017.8
20260903114006 72 95 1.0 3.0 0.00 0.11 0.00 96 1017.6
20260903113506 72 95 1.0 3.0 0.00 0.11 0.00 96 1017.7
20260903113001 72 313 0.0 2.0 0.00 0.11 0.00 96 1017.9
20260903112503 72 192 0.0 1.0 0.00 0.11 0.00 96 1017.4
20260903112003 72 192 0.0 0.0 0.00 0.11 0.00 96 1017.3
20260903111501 72 192 0.0 0.0 0.00 0.11 0.00 96 1017.3
20260903111002 72 192 0.0 0.0 0.00 0.11 0.00 96 1017.2
20260903110502 72 192 0.0 0.0 0.00 0.11 0.00 96 1017.1
20260903110002 72 192 0.0 0.0 0.00 0.11 0.00 96 1017.0
20260903105500 72 192 0.0 0.0 0.00 0.11 0.00 96 1016.8
20260903105002 72 192 0.0 0.0 0.00 0.11 0.00 96 1016.7
20260903104500 72 192 0.0 0.0 0.00 0.11 0.00 96 1016.7
20260903104001 72 192 0.0 0.0 0.00 0.11 0.00 96 1016.6
20260903103724 72 192 0.0 0.0 0.00 0.11 0.00 96 1016.4
20260903103003 72 192 0.0 1.0 0.00 0.11 0.00 96 1016.4
20260903102500 72 192 0.0 1.0 0.00 0.11 0.00 96 1016.4
20260903102220 72 192 0.0 1.0 0.00 0.11 0.00 96 1016.4
20260903101502 72 192 0.0 1.0 0.00 0.11 0.00 96 1016.4
20260903100959 72 192 0.0 1.0 0.00 0.11 0.00 96 1016.4
20260903100722 72 192 0.0 0.0 0.00 0.11 0.00 96 1016.4
20260903095953 72 192 0.0 0.0 0.00 0.11 0.00 96 1016.5
20260903095455 72 192 0.0 0.0 0.00 0.11 0.00 96 1016.5
20260903094955 72 192 0.0 1.0 0.00 0.11 0.00 96 1016.5
20260903094450 72 192 0.0 1.0 0.00 0.11 0.00 96 1016.6
20260903093947 72 192 0.0 1.0 0.00 0.11 0.00 96 1016.6
20260903093445 72 192 0.0 1.0 0.00 0.11 0.00 96 1016.6
20260903092946 72 192 0.0 1.0 0.00 0.11 0.00 96 1016.7
20260903092444 72 172 0.0 0.0 0.00 0.11 0.00 96 1016.7
20260903091944 72 172 0.0 0.0 0.00 0.11 0.00 96 1016.7
20260903091442 72 172 0.0 0.0 0.00 0.11 0.00 95 1016.7
20260903090941 72 172 0.0 1.0 0.00 0.11 0.00 95 1016.7
20260903090442 72 172 0.0 1.0 0.00 0.11 0.00 96 1016.6
20260903085942 72 172 0.0 1.0 0.00 0.11 0.00 95 1016.6
20260903085438 72 172 0.0 1.0 0.00 0.11 0.00 96 1016.6
20260903084938 72 172 0.0 2.0 0.00 0.11 0.00 96 1016.6
20260903084436 72 172 0.0 2.0 0.00 0.11 0.00 96 1016.6
20260903084412 72 172 0.0 1.0 0.00 0.11 0.00 95 1016.7
20260903083430 72 172 0.0 1.0 0.00 0.11 0.00 95 1016.7
20260903083159 72 172 0.0 1.0 0.00 0.11 0.00 95 1016.6
20260903082426 72 172 0.0 2.0 0.00 0.11 0.00 95 1016.5
20260903081924 72 188 0.0 2.0 0.00 0.11 0.00 95 1016.5
20260903081426 72 188 0.0 0.0 0.00 0.11 0.00 95 1016.5
20260903080918 72 188 0.0 0.0 0.00 0.11 0.00 95 1016.4
20260903080640 73 188 0.0 1.0 0.00 0.11 0.00 95 1016.5
20260903075905 73 188 0.0 2.0 0.00 0.11 0.00 95 1016.5
20260903075618 73 188 0.0 2.0 0.00 0.11 0.00 95 1016.3
20260903075113 73 188 0.0 1.0 0.00 0.11 0.00 95 1016.2
20260903074346 73 188 0.0 1.0 0.00 0.11 0.00 95 1016.2
20260903073840 73 188 0.0 1.0 0.00 0.11 0.00 95 1016.2
20260903073333 73 188 0.0 1.0 0.00 0.11 0.00 95 1016.2
20260903072827 73 188 0.0 1.0 0.00 0.11 0.00 95 1016.1
20260903072321 73 188 0.0 1.0 0.00 0.11 0.00 95 1016.2
20260903071815 73 188 0.0 1.0 0.00 0.11 0.00 95 1016.2
20260903071309 73 188 0.0 1.0 0.00 0.11 0.00 95 1016.1
20260903070803 73 188 0.0 1.0 0.00 0.11 0.00 95 1016.2
20260903070515 73 185 0.0 1.0 0.00 0.11 0.00 95 1016.2
20260903065751 73 156 0.0 2.0 0.00 0.11 0.00 95 1016.1
20260903065505 73 156 0.0 2.0 0.00 0.11 0.00 95 1016.2
20260903064740 73 148 0.0 1.0 0.00 0.11 0.00 95 1016.3
20260903064723 73 148 0.0 1.0 0.00 0.11 0.00 95 1016.3
20260903063727 73 148 0.0 1.0 0.00 0.11 0.00 95 1016.4
20260903063221 72 148 0.0 1.0 0.00 0.11 0.00 95 1016.5
20260903062715 72 148 0.0 1.0 0.00 0.11 0.00 95 1016.4
20260903062437 72 148 0.0 1.0 0.00 0.11 0.00 95 1016.6
20260903062147 72 148 0.0 1.0 0.00 0.11 0.00 95 1016.5
20260903061157 72 148 0.0 1.0 0.00 0.11 0.00 95 1016.6
20260903060651 72 148 0.0 1.0 0.00 0.11 0.00 95 1016.8
20260903060145 72 148 0.0 1.0 0.00 0.11 0.00 95 1016.8
20260903055900 72 148 0.0 2.0 0.00 0.11 0.00 95 1016.9
20260903055133 72 148 1.0 2.0 0.00 0.11 0.00 95 1017.0
20260903054627 72 148 1.0 2.0 0.00 0.11 0.00 95 1017.0
20260903054121 72 148 1.0 3.0 0.00 0.11 0.00 94 1017.0
20260903053615 72 139 1.0 3.0 0.00 0.11 0.00 95 1017.1
20260903053109 72 153 0.0 3.0 0.00 0.11 0.00 94 1017.2
20260903052832 72 77 0.0 1.0 0.00 0.11 0.00 94 1017.3
20260903052058 72 77 0.0 1.0 0.00 0.11 0.00 94 1017.3
20260903052035 72 77 0.0 1.0 0.00 0.11 0.00 94 1017.2
20260903051045 72 77 0.0 1.0 0.00 0.11 0.00 94 1017.2
20260903050542 72 77 0.0 0.0 0.00 0.11 0.00 94 1017.1
20260903050033 72 77 0.0 0.0 0.00 0.11 0.00 94 1017.1
20260903045753 72 77 0.0 0.0 0.00 0.11 0.00 94 1017.2
20260903045020 72 77 0.0 1.0 0.00 0.11 0.00 94 1017.3
20260903044514 72 77 0.0 1.0 0.00 0.11 0.00 94 1017.2
20260903044009 72 77 0.0 0.0 0.00 0.11 0.00 94 1017.2
20260903043723 72 77 0.0 1.0 0.00 0.11 0.00 94 1017.1
20260903042958 72 77 0.0 1.0 0.00 0.11 0.00 94 1017.2
20260903042712 72 77 0.0 0.0 0.00 0.11 0.00 94 1017.2
20260903042209 72 77 0.0 1.0 0.00 0.11 0.00 93 1017.2
20260903041439 72 77 0.0 1.0 0.00 0.11 0.00 93 1017.3
20260903040933 72 77 0.0 0.0 0.00 0.11 0.00 93 1017.3
20260903040427 72 77 0.0 1.0 0.00 0.11 0.00 93 1017.4
20260903035921 72 77 0.0 1.0 0.00 0.11 0.11 93 1017.4
20260903035415 72 77 0.0 1.0 0.00 0.11 0.11 93 1017.3
20260903035401 72 77 0.0 1.0 0.00 0.11 0.11 93 1017.4
20260903034402 72 10 0.0 1.0 0.00 0.11 0.11 93 1017.3
20260903033857 72 10 0.0 1.0 0.00 0.11 0.11 93 1017.3
20260903033614 72 10 0.0 0.0 0.00 0.11 0.11 93 1017.2
20260903032845 72 10 0.0 0.0 0.00 0.11 0.11 93 1017.1
20260903032339 73 10 0.0 0.0 0.00 0.11 0.11 93 1017.1
20260903031833 73 10 0.0 0.0 0.00 0.11 0.11 93 1017.2
20260903031327 73 10 0.0 0.0 0.00 0.11 0.11 93 1017.1
20260903031047 73 10 0.0 0.0 0.00 0.11 0.11 93 1017.0
20260903030534 73 10 0.0 0.0 0.00 0.11 0.11 93 1017.0
20260903025809 73 10 0.0 0.0 0.00 0.11 0.11 93 1016.9
20260903025527 73 10 0.0 0.0 0.00 0.11 0.11 93 1016.9
20260903024959 73 10 0.0 0.0 0.00 0.11 0.11 93 1016.9
20260903024841 73 10 0.0 0.0 0.00 0.11 0.11 93 1016.9
20260903023745 73 10 0.0 0.0 0.00 0.11 0.11 93 1016.9
20260903023239 73 10 0.0 0.0 0.00 0.11 0.11 93 1016.8
20260903023214 73 10 0.0 0.0 0.00 0.11 0.11 93 1016.8
20260903022227 74 10 0.0 0.0 0.00 0.11 0.11 93 1016.8
20260903021721 74 10 0.0 0.0 0.00 0.11 0.11 93 1016.9
20260903021448 74 10 0.0 0.0 0.00 0.11 0.11 93 1016.9
20260903020930 74 10 0.0 1.0 0.00 0.11 0.11 93 1016.9
20260903020203 74 10 0.0 1.0 0.00 0.11 0.11 93 1016.9
20260903015657 74 10 0.0 0.0 0.00 0.11 0.11 93 1017.1
20260903015157 74 10 0.0 0.0 0.00 0.11 0.11 93 1017.2
20260903014654 74 10 0.0 0.0 0.00 0.11 0.11 93 1017.2
20260903014154 74 10 0.0 0.0 0.00 0.11 0.11 93 1017.3
20260903013652 74 10 0.0 0.0 0.00 0.11 0.11 93 1017.3
20260903013149 74 10 0.0 0.0 0.00 0.11 0.11 93 1017.3
20260903012647 75 10 0.0 0.0 0.00 0.11 0.11 93 1017.3
20260903012147 75 10 0.0 0.0 0.00 0.11 0.11 93 1017.3
20260903011647 75 10 0.0 0.0 0.00 0.11 0.11 93 1017.4
20260903011411 75 10 0.0 1.0 0.00 0.11 0.11 93 1017.5
20260903010647 75 10 0.0 1.0 0.00 0.11 0.11 93 1017.3
20260903010147 75 346 0.0 1.0 0.00 0.11 0.11 93 1017.1
20260903005647 75 346 0.0 1.0 0.00 0.11 0.11 93 1017.3
20260903005145 75 59 0.0 2.0 0.00 0.11 0.11 93 1017.5
20260903004644 75 33 0.0 2.0 0.00 0.11 0.11 93 1017.5
20260903004357 76 86 0.0 0.0 0.00 0.11 0.11 93 1017.5
20260903003640 76 86 0.0 0.0 0.00 0.11 0.11 93 1017.5
20260903003139 76 86 0.0 0.0 0.00 0.11 0.11 93 1017.6
20260903002638 76 86 0.0 0.0 0.00 0.11 0.11 93 1017.7
20260903002136 76 86 0.0 0.0 0.00 0.11 0.11 93 1017.6
20260903001637 76 86 0.0 0.0 0.00 0.11 0.11 93 1017.5
20260903001132 76 86 0.0 0.0 0.00 0.11 0.11 93 1017.5
20260903000626 76 86 0.0 0.0 0.00 0.11 0.11 93 1017.6
20260903000125 76 86 0.0 0.0 0.00 0.11 0.11 92 1017.5
20260902235625 76 86 0.0 0.0 0.00 0.11 0.11 93 1017.5
20260902235124 76 86 0.0 0.0 0.00 0.11 0.11 92 1017.5
20260902234626 76 86 0.0 0.0 0.00 0.11 0.11 92 1017.6
20260902234123 76 86 0.0 0.0 0.00 0.11 0.11 92 1017.6
20260902233621 76 86 0.0 0.0 0.00 0.11 0.11 92 1017.5
20260902233118 76 86 0.0 0.0 0.00 0.11 0.11 93 1017.3
20260902232618 76 86 0.0 0.0 0.00 0.11 0.11 93 1017.1
20260902232333 76 86 0.0 0.0 0.00 0.11 0.11 93 1017.4
20260902231617 77 86 0.0 0.0 0.00 0.11 0.11 93 1017.6
20260902231116 77 86 0.0 0.0 0.00 0.11 0.11 93 1017.4
20260902230617 77 86 0.0 0.0 0.00 0.11 0.11 93 1017.8
20260902230550 77 86 0.0 0.0 0.00 0.11 0.11 93 1018.1
20260902225612 77 86 0.0 0.0 0.00 0.11 0.11 93 1018.0
20260902225602 77 86 0.0 0.0 0.00 0.11 0.11 93 1017.7
20260902224613 77 86 0.0 0.0 0.00 0.11 0.11 94 1017.8
20260902224111 77 86 0.0 0.0 0.00 0.11 0.11 94 1018.0
20260902223830 77 86 0.0 0.0 0.00 0.11 0.11 94 1017.9
20260902223117 77 86 0.0 0.0 0.00 0.11 0.11 94 1017.8
20260902222842 77 86 0.0 0.0 0.00 0.11 0.11 93 1018.0
20260902222113 76 86 0.0 1.0 0.00 0.11 0.11 93 1017.7
20260902222048 77 86 0.0 1.0 0.00 0.11 0.11 93 1017.6
20260902221335 77 86 0.0 1.0 0.00 0.11 0.11 91 1017.7
20260902220614 77 86 0.0 1.0 0.00 0.11 0.11 91 1017.5
20260902220113 77 86 0.0 1.0 0.00 0.11 0.11 91 1017.2
20260902215613 77 86 0.0 1.0 0.00 0.11 0.11 91 1017.2
20260902215115 77 86 0.0 0.0 0.00 0.11 0.11 90 1017.3
20260902214611 77 86 0.0 0.0 0.00 0.11 0.11 90 1017.5
20260902214109 77 86 0.0 0.0 0.00 0.11 0.11 90 1017.6
20260902213606 78 86 0.0 0.0 0.00 0.11 0.11 90 1017.6
20260902213107 78 86 0.0 0.0 0.00 0.11 0.11 90 1017.8
20260902212606 78 86 0.0 1.0 0.00 0.11 0.11 89 1017.7
20260902212100 78 86 0.0 1.0 0.00 0.11 0.11 89 1017.8
20260902211552 78 86 0.0 2.0 0.01 0.11 0.11 89 1017.8
20260902211053 78 86 0.0 2.0 0.01 0.11 0.11 89 1018.0
20260902210550 78 86 0.0 1.0 0.01 0.11 0.11 88 1017.9
20260902210049 79 86 0.0 1.0 0.01 0.11 0.11 88 1018.1
20260902205546 79 86 0.0 1.0 0.03 0.11 0.11 88 1018.4
20260902205043 79 41 0.0 1.0 0.04 0.11 0.11 88 1018.4
20260902204544 80 92 0.0 1.0 0.05 0.11 0.11 87 1018.2
20260902204041 80 325 0.0 0.0 0.06 0.11 0.11 87 1018.3
20260902203805 80 325 0.0 0.0 0.09 0.11 0.11 86 1018.2
20260902203038 80 325 0.0 1.0 0.11 0.11 0.11 85 1017.8
20260902202535 81 49 0.0 1.0 0.11 0.11 0.11 85 1017.4
20260902202033 82 49 0.0 1.0 0.11 0.11 0.11 83 1017.4
20260902201755 82 337 0.0 1.0 0.10 0.10 0.10 82 1017.8
20260902201027 83 337 0.0 3.0 0.10 0.10 0.10 81 1017.7
20260902200525 83 23 1.0 3.0 0.10 0.10 0.10 80 1018.1
20260902200242 84 103 0.0 1.0 0.10 0.10 0.10 77 1018.2
20260902195524 85 103 1.0 3.0 0.08 0.08 0.09 76 1018.3
20260902195021 86 105 1.0 6.0 0.07 0.07 0.07 74 1018.4
20260902194517 87 98 1.0 6.0 0.06 0.06 0.06 73 1018.8
20260902194017 88 37 1.0 2.0 0.05 0.05 0.05 76 1019.0
20260902193517 88 64 0.0 2.0 0.02 0.02 0.03 72 1018.4
20260902193236 88 144 1.0 4.0 0.00 0.00 0.00 66 1018.1
20260902192512 89 144 2.0 7.0 0.00 0.00 0.00 62 1018.3
20260902192012 92 159 3.0 7.0 0.00 0.00 0.00 58 1018.3
20260902191506 94 317 3.0 6.0 0.00 0.00 0.00 60 1017.9
20260902191000 94 155 2.0 6.0 0.00 0.00 0.00 60 1017.5
20260902190454 94 146 2.0 5.0 0.00 0.00 0.00 60 1017.2
20260902190436 92 121 2.0 4.0 0.00 0.00 0.00 63 1017.2
20260902185442 92 153 2.0 4.0 0.00 0.00 0.00 63 1017.3
20260902184936 90 142 2.0 4.0 0.00 0.00 0.00 63 1017.5
20260902184431 91 120 2.0 4.0 0.00 0.00 0.00 63 1017.6
20260902183924 92 130 2.0 4.0 0.00 0.00 0.00 60 1017.8
20260902183419 93 144 1.0 4.0 0.00 0.00 0.00 58 1017.8
20260902182912 95 110 1.0 4.0 0.00 0.00 0.00 56 1017.8
20260902182629 95 153 1.0 2.0 0.00 0.00 0.00 56 1017.7
20260902181901 95 81 1.0 3.0 0.00 0.00 0.00 56 1017.7
20260902181354 95 159 1.0 3.0 0.00 0.00 0.00 55 1017.6
20260902180848 97 120 1.0 3.0 0.00 0.00 0.00 54 1017.6
20260902180343 96 122 2.0 3.0 0.00 0.00 0.00 55 1017.7
20260902180104 96 163 1.0 7.0 0.00 0.00 0.00 57 1017.8
20260902175330 95 0 1.0 7.0 0.00 0.00 0.00 57 1017.9
20260902174825 93 21 1.0 2.0 0.00 0.00 0.00 61 1017.9
20260902174318 92 120 1.0 3.0 0.00 0.00 0.00 61 1018.0
20260902173812 93 36 1.0 4.0 0.00 0.00 0.00 59 1017.9
20260902173306 94 191 1.0 4.0 0.00 0.00 0.00 58 1018.0
20260902173026 95 72 1.0 3.0 0.00 0.00 0.00 58 1018.1
20260902172254 95 236 1.0 2.0 0.00 0.00 0.00 56 1018.1
20260902171748 93 88 0.0 2.0 0.00 0.00 0.00 61 1018.1
20260902171242 93 88 1.0 3.0 0.00 0.00 0.00 60 1018.2
20260902170738 92 326 1.0 3.0 0.00 0.00 0.00 59 1018.3
20260902170231 92 287 1.0 3.0 0.00 0.00 0.00 61 1018.3
20260902165724 93 236 1.0 3.0 0.00 0.00 0.00 63 1018.2
20260902165218 92 119 1.0 4.0 0.00 0.00 0.00 62 1018.3
20260902164712 92 261 1.0 4.0 0.00 0.00 0.00 61 1018.2
20260902164206 93 228 1.0 3.0 0.00 0.00 0.00 61 1018.2
20260902163701 92 265 1.0 3.0 0.00 0.00 0.00 61 1018.3
20260902163153 92 206 1.0 4.0 0.00 0.00 0.00 62 1018.3
20260902162648 91 261 1.0 4.0 0.00 0.00 0.00 62 1018.3
20260902162404 91 355 1.0 3.0 0.00 0.00 0.00 62 1018.4
20260902161637 92 108 1.0 3.0 0.00 0.00 0.00 61 1018.3
20260902161130 91 108 1.0 3.0 0.00 0.00 0.00 64 1018.3
20260902160625 91 264 1.0 3.0 0.00 0.00 0.00 63 1018.3
20260902160119 90 166 1.0 4.0 0.00 0.00 0.00 64 1018.3
20260902155612 89 166 0.0 4.0 0.00 0.00 0.00 67 1018.2
20260902155106 89 258 0.0 2.0 0.00 0.00 0.00 65 1018.2
20260902154600 88 258 1.0 3.0 0.00 0.00 0.00 69 1018.2
20260902154054 88 238 1.0 4.0 0.00 0.00 0.00 68 1018.2
20260902153549 88 66 1.0 4.0 0.00 0.00 0.00 71 1018.2
20260902153043 87 148 0.0 2.0 0.00 0.00 0.00 69 1018.2
20260902152539 87 166 1.0 3.0 0.00 0.00 0.00 70 1018.3
20260902152030 87 300 1.0 3.0 0.00 0.00 0.00 70 1018.3
20260902151525 86 254 2.0 3.0 0.00 0.00 0.00 70 1018.3
20260902151018 85 267 2.0 4.0 0.00 0.00 0.00 72 1018.5
20260902150729 85 287 1.0 4.0 0.00 0.00 0.00 74 1018.4
20260902150006 85 262 1.0 3.0 0.00 0.00 0.00 72 1018.4
20260902145500 85 263 0.0 2.0 0.00 0.00 0.00 72 1018.4
20260902145000 84 114 1.0 3.0 0.00 0.00 0.00 74 1018.5
20260902144500 84 44 1.0 3.0 0.00 0.00 0.00 74 1018.4
20260902144001 84 115 0.0 2.0 0.00 0.00 0.00 74 1018.3
20260902143459 84 80 0.0 2.0 0.00 0.00 0.00 75 1018.3
20260902143222 83 76 0.0 1.0 0.00 0.00 0.00 75 1018.2
20260902142722 83 76 0.0 3.0 0.00 0.00 0.00 78 1018.3
20260902141957 82 76 0.0 3.0 0.00 0.00 0.00 79 1018.3
20260902141458 82 30 0.0 2.0 0.00 0.00 0.00 80 1018.3
20260902141438 81 30 0.0 2.0 0.00 0.00 0.00 79 1018.2
20260902140454 81 43 0.0 2.0 0.00 0.00 0.00 81 1018.2
20260902135951 81 44 0.0 4.0 0.00 0.00 0.00 81 1018.2
20260902135451 80 44 0.0 4.0 0.00 0.00 0.00 82 1018.2
20260902135213 79 85 0.0 1.0 0.00 0.00 0.00 85 1018.1
20260902134451 78 85 0.0 1.0 0.00 0.00 0.00 86 1018.2
20260902134218 78 48 0.0 2.0 0.00 0.00 0.00 86 1018.2
20260902133452 78 48 0.0 2.0 0.00 0.00 0.00 86 1018.2
20260902132947 78 51 0.0 1.0 0.00 0.00 0.00 87 1018.1
20260902132448 78 51 0.0 1.0 0.00 0.00 0.00 88 1018.0
20260902131948 76 51 0.0 1.0 0.00 0.00 0.00 91 1018.1
20260902131448 76 51 0.0 2.0 0.00 0.00 0.00 91 1018.1